Weather History for Chicopee, MA

Change the Weather History Date:

Thursday, August 30, 2012

  Actual Average Record
Temperature  
Mean Temperature 64 °F -  
Max Temperature 81 °F 76 °F 90 °F (2010)
Min Temperature 48 °F 55 °F 48 °F (2012)
Growing Degree Days 14 (Base 50)    
Moisture  
Dew Point 52 °F    
Average Humidity 68    
Maximum Humidity 98    
Minimum Humidity 36    
Precipitation  
Precipitation 0.00 in - - ()
Sea Level Pressure  
Sea Level Pressure 30.03 in    
Wind  
Wind Speed 3 mph (SW)    
Max Wind Speed 15 mph    
Max Gust Speed 20 mph    
Visibility 10 miles    
Events      
Averages and records for this station are not official NWS values.
T = Trace of Precipitation, MM = Missing Value Source: NWS Daily Summary

Daily Weather History Graph

Daily Weather History Graph

Search for Another Location

Airport:

Trip Planner

Search our weather history database for the weather conditions in past years. The results will help you decide how hot, cold, wet, or windy it might be!

Date:

Astronomy

Aug. 30, 2012 Rise Set
Actual Time 6:13 AM EDT 7:26 PM EDT
Civil Twilight 5:44 AM EDT 7:55 PM EDT
Nautical Twilight 5:10 AM EDT 8:29 PM EDT
Astronomical Twilight 4:33 AM EDT 9:06 PM EDT
Moon 6:38 PM EDT (8/30) 5:11 AM EDT (8/30)
Length of Visible Light 14h 10m
Length of Day
13h 12m
Waxing Gibbous, 99% of the Moon is Illuminated
Aug 30
Waxing Gibbous
Aug 31
Full
Sep 8
Last Quarter
Sep 15
New
Sep 22
First Quarter

Hourly Weather History & Observations

Time (EDT) Temp. Heat Index Dew Point Humidity Pressure Visibility Wind Dir Wind Speed Gust Speed Precip Events Conditions
12:55 AM 51.3 °F - 50.7 °F 98% 30.01 in 10.0 mi Calm Calm - N/A   Clear
1:55 AM 51.1 °F - 50.5 °F 98% 30.01 in 10.0 mi Calm Calm - N/A   Clear
2:55 AM 51.3 °F - 50.7 °F 98% 30.01 in 10.0 mi Calm Calm - N/A   Clear
3:55 AM 48.2 °F - 47.7 °F 98% 30.02 in 10.0 mi Calm Calm - N/A   Clear
4:55 AM 51.6 °F - 51.1 °F 98% 30.01 in 9.0 mi Calm Calm - N/A   Clear
5:55 AM 48.2 °F - 47.7 °F 98% 30.04 in 9.0 mi Calm Calm - N/A   Clear
6:50 AM 48.2 °F - 46.4 °F 93% 30.06 in 3.0 mi Calm Calm - N/A   Clear
6:55 AM 48.0 °F - 47.5 °F 98% 30.06 in 10.0 mi Calm Calm - N/A   Clear
7:55 AM 55.8 °F - 54.9 °F 97% 30.07 in 10.0 mi Calm Calm - N/A   Clear
8:55 AM 61.2 °F - 53.8 °F 77% 30.07 in 10.0 mi Calm Calm - N/A   Clear
9:55 AM 66.0 °F - 52.3 °F 61% 30.07 in 10.0 mi Calm Calm - N/A   Clear
10:55 AM 70.2 °F - 50.7 °F 50% 30.07 in 10.0 mi Calm Calm - N/A   Clear
11:55 AM 74.3 °F - 53.4 °F 48% 30.06 in 10.0 mi WSW 5.8 mph - N/A   Clear
12:55 PM 77.9 °F - 53.2 °F 42% 30.05 in 10.0 mi SW 8.1 mph - N/A   Clear
1:55 PM 79.9 °F - 52.3 °F 38% 30.03 in 10.0 mi WSW 12.7 mph 17.3 mph N/A   Clear
2:55 PM 80.1 °F 80.0 °F 53.8 °F 40% 30.02 in 10.0 mi SW 9.2 mph - N/A   Clear
3:55 PM 81.0 °F - 51.4 °F 36% 30.01 in 10.0 mi WSW 15.0 mph 19.6 mph N/A   Clear
4:55 PM 80.2 °F - 51.6 °F 37% 30.00 in 10.0 mi SW 11.5 mph - N/A   Clear
5:55 PM 78.4 °F - 55.2 °F 45% 30.00 in 10.0 mi SW 13.8 mph - N/A   Clear
6:55 PM 75.0 °F - 54.3 °F 48% 30.01 in 10.0 mi SSW 8.1 mph - N/A   Clear
7:55 PM 70.2 °F - 55.6 °F 60% 30.01 in 10.0 mi SSW 8.1 mph - N/A   Clear
8:55 PM 67.6 °F - 54.7 °F 63% 30.02 in 10.0 mi SSW 8.1 mph - N/A   Clear
9:55 PM 69.1 °F - 54.0 °F 58% 30.01 in 10.0 mi SSW 10.4 mph - N/A   Clear
10:55 PM 66.4 °F - 54.1 °F 65% 30.00 in 10.0 mi SSE 3.5 mph - N/A   Clear
11:55 PM 65.8 °F - 53.8 °F 65% 30.01 in 10.0 mi South 4.6 mph - N/A   Clear